GW0194 Weather Reports


time (UTC)temp
C
wind
direction
speed
KPH
gust
KPH
rain 1hr
cm
rain 24hr
cm
rain mn
cm
humidity
%
barometer
mb
20260505034530 8 0 0.0 0.0 0.25 0.51 0.51 89 1012.4
20260505033040 8 0 0.0 1.6 0.41 0.51 0.51 89 1012.5
20260505031528 8 0 0.0 3.2 0.48 0.51 0.51 88 1012.5
20260505030028 8 259 0.0 4.8 0.41 0.43 0.43 87 1012.2
20260505024551 9 0 0.0 8.0 0.25 0.25 0.25 86 1012.0
20260505023037 10 0 0.0 1.6 0.10 0.10 0.10 83 1011.8
20260505021544 10 0 0.0 0.0 0.03 0.03 0.03 74 1011.4
20260505020028 10 0 0.0 1.6 0.03 0.03 0.03 71 1011.4
20260505014529 10 43 1.6 6.4 0.00 0.00 0.00 72 1011.3
20260505013029 11 27 1.6 9.7 0.00 0.00 0.00 69 1011.0
20260505011539 12 91 1.6 11.3 0.00 0.00 0.00 61 1011.0
20260505010031 13 0 0.0 1.6 0.00 0.00 0.00 55 1010.5
20260505004538 13 0 0.0 1.6 0.00 0.00 0.00 52 1010.4
20260505003028 14 0 0.0 4.8 0.00 0.00 0.00 53 1010.3
20260505001528 14 30 1.6 9.7 0.00 0.00 0.00 55 1010.2
20260505000027 14 0 0.0 3.2 0.00 0.00 0.00 53 1010.0
20260504234530 14 0 0.0 1.6 0.00 0.00 0.00 56 1010.2
20260504233034 14 0 0.0 1.6 0.00 0.00 0.00 54 1010.2
20260504231530 13 271 0.0 1.6 0.00 0.00 0.00 57 1009.8
20260504230030 13 83 0.0 6.4 0.00 0.00 0.00 55 1010.1
20260504224529 14 300 0.0 11.3 0.00 0.00 0.00 54 1010.4
20260504223036 15 235 1.6 6.4 0.00 0.00 0.00 44 1010.5
20260504221535 16 262 1.6 6.4 0.00 0.00 0.00 43 1010.2
20260504220028 15 30 0.0 12.9 0.00 0.00 0.00 44 1009.3
20260504214529 16 34 6.4 16.1 0.00 0.00 0.00 45 1009.1
20260504213030 16 68 8.0 20.9 0.00 0.00 0.00 43 1009.2
20260504211531 16 24 8.0 33.8 0.00 0.00 0.00 42 1009.2
20260504210030 17 20 17.7 29.0 0.00 0.00 0.00 39 1009.2
20260504204541 20 38 4.8 19.3 0.00 0.00 0.00 29 1009.0
20260504203029 19 96 4.8 19.3 0.00 0.00 0.00 34 1008.5
20260504201529 18 212 6.4 19.3 0.00 0.00 0.00 36 1008.7
20260504200034 19 242 6.4 17.7 0.00 0.00 0.00 31 1009.1
20260504194537 22 234 4.8 16.1 0.00 0.00 0.00 22 1008.7
20260504193031 22 236 3.2 12.9 0.00 0.00 0.00 22 1008.4
20260504191530 23 0 3.2 8.0 0.00 0.00 0.00 22 1008.3
20260504190035 22 350 1.6 8.0 0.00 0.00 0.00 22 1008.2
20260504184535 22 333 1.6 11.3 0.00 0.00 0.00 23 1008.5
20260504183032 22 220 1.6 6.4 0.00 0.00 0.00 22 1008.9
20260504181530 22 336 3.2 9.7 0.00 0.00 0.00 24 1008.8
20260504180032 22 248 3.2 12.9 0.00 0.00 0.00 25 1009.0
20260504174530 21 212 4.8 19.3 0.00 0.00 0.00 26 1009.2
20260504173029 21 348 4.8 16.1 0.00 0.00 0.00 26 1009.4
20260504171533 21 304 1.6 11.3 0.00 0.00 0.00 27 1009.7
20260504081543 6 237 0.0 1.6 0.00 0.00 0.00 54 1011.2
20260504044529 15 0 0.0 8.0 0.00 0.00 0.00 31 1011.5
20260504043039 15 0 0.0 6.4 0.00 0.00 0.00 31 1011.6
20260504041531 16 207 0.0 3.2 0.00 0.00 0.00 30 1011.7
20260504040030 16 208 1.6 11.3 0.00 0.00 0.00 29 1011.9